| time (UTC) | temp C | wind direction | speed KPH | gust KPH | rain 1hr cm | rain 24hr cm | rain mn cm | humidity % | barometer mb |
| 20260831141004 | 19 | 329 | 9.7 | 30.6 | 0.00 | 0.10 | 0.10 | 80 | 1012.8 |
| 20260831140004 | 22 | 277 | 8.0 | 19.3 | 0.00 | 0.10 | 0.10 | 66 | 1012.2 |
| 20260831135004 | 22 | 297 | 6.4 | 20.9 | 0.00 | 0.10 | 0.10 | 65 | 1012.1 |
| 20260831134004 | 22 | 276 | 6.4 | 14.5 | 0.00 | 0.10 | 0.10 | 68 | 1012.0 |
| 20260831133004 | 22 | 264 | 6.4 | 22.5 | 0.00 | 0.10 | 0.10 | 71 | 1012.1 |
| 20260831132003 | 21 | 278 | 6.4 | 17.7 | 0.00 | 0.10 | 0.10 | 70 | 1011.8 |
| 20260831131004 | 22 | 284 | 8.0 | 19.3 | 0.00 | 0.10 | 0.10 | 68 | 1011.7 |
| 20260831130004 | 22 | 276 | 8.0 | 22.5 | 0.00 | 0.10 | 0.10 | 67 | 1011.5 |
| 20260831125003 | 22 | 273 | 8.0 | 19.3 | 0.00 | 0.10 | 0.10 | 68 | 1011.5 |
| 20260831124004 | 21 | 279 | 8.0 | 20.9 | 0.00 | 0.10 | 0.10 | 68 | 1011.3 |
| 20260831123005 | 21 | 324 | 8.0 | 24.1 | 0.00 | 0.10 | 0.10 | 70 | 1011.2 |
| 20260831122004 | 20 | 300 | 9.7 | 22.5 | 0.00 | 0.10 | 0.10 | 72 | 1011.2 |
| 20260831121003 | 20 | 324 | 11.3 | 24.1 | 0.00 | 0.10 | 0.10 | 72 | 1011.0 |
| 20260831120003 | 20 | 316 | 8.0 | 24.1 | 0.00 | 0.10 | 0.10 | 71 | 1010.9 |
| 20260831114003 | 20 | 314 | 8.0 | 24.1 | 0.00 | 0.10 | 0.10 | 72 | 1010.6 |
| 20260831113004 | 20 | 295 | 8.0 | 17.7 | 0.00 | 0.10 | 0.10 | 71 | 1010.5 |
| 20260831112004 | 20 | 306 | 8.0 | 29.0 | 0.00 | 0.10 | 0.10 | 71 | 1010.3 |
| 20260831111004 | 20 | 314 | 8.0 | 22.5 | 0.00 | 0.10 | 0.10 | 72 | 1010.2 |
| 20260831110004 | 20 | 303 | 8.0 | 27.4 | 0.00 | 0.10 | 0.10 | 73 | 1010.1 |
| 20260831105003 | 21 | 272 | 8.0 | 24.1 | 0.00 | 0.10 | 0.10 | 71 | 1009.9 |
| 20260831104004 | 20 | 276 | 6.4 | 19.3 | 0.00 | 0.10 | 0.10 | 74 | 1009.7 |
| 20260831103005 | 19 | 286 | 8.0 | 19.3 | 0.00 | 0.10 | 0.10 | 75 | 1009.7 |
| 20260831102004 | 18 | 296 | 8.0 | 20.9 | 0.00 | 0.10 | 0.10 | 76 | 1009.7 |
| 20260831101003 | 18 | 316 | 8.0 | 24.1 | 0.00 | 0.10 | 0.10 | 77 | 1009.6 |
| 20260831100004 | 18 | 310 | 6.4 | 22.5 | 0.03 | 0.10 | 0.10 | 77 | 1009.6 |
| 20260831095003 | 18 | 290 | 6.4 | 20.9 | 0.03 | 0.10 | 0.10 | 78 | 1009.4 |
| 20260831094003 | 18 | 310 | 8.0 | 22.5 | 0.03 | 0.10 | 0.10 | 80 | 1009.3 |
| 20260831092004 | 17 | 298 | 6.4 | 20.9 | 0.03 | 0.10 | 0.10 | 80 | 1009.0 |
| 20260831085004 | 17 | 285 | 4.8 | 12.9 | 0.00 | 0.08 | 0.08 | 84 | 1008.4 |
| 20260831084004 | 17 | 274 | 6.4 | 20.9 | 0.00 | 0.08 | 0.08 | 85 | 1008.3 |
| 20260831083004 | 17 | 302 | 4.8 | 14.5 | 0.00 | 0.08 | 0.08 | 84 | 1008.1 |
| 20260831082004 | 17 | 279 | 8.0 | 16.1 | 0.00 | 0.08 | 0.08 | 84 | 1008.0 |
| 20260831081003 | 16 | 270 | 9.7 | 19.3 | 0.00 | 0.08 | 0.08 | 85 | 1007.8 |
| 20260831080004 | 16 | 260 | 8.0 | 25.7 | 0.00 | 0.08 | 0.08 | 86 | 1007.6 |
| 20260831075003 | 16 | 266 | 8.0 | 19.3 | 0.00 | 0.08 | 0.08 | 87 | 1007.6 |
| 20260831074005 | 16 | 269 | 8.0 | 19.3 | 0.00 | 0.08 | 0.08 | 88 | 1007.5 |
| 20260831073004 | 15 | 265 | 8.0 | 20.9 | 0.00 | 0.08 | 0.08 | 89 | 1007.3 |
| 20260831072004 | 15 | 271 | 8.0 | 20.9 | 0.00 | 0.08 | 0.08 | 90 | 1007.2 |
| 20260831071003 | 15 | 270 | 8.0 | 19.3 | 0.00 | 0.08 | 0.08 | 92 | 1007.0 |
| 20260831065003 | 14 | 262 | 4.8 | 17.7 | 0.00 | 0.08 | 0.08 | 92 | 1006.8 |
| 20260831064003 | 13 | 267 | 4.8 | 12.9 | 0.00 | 0.08 | 0.08 | 93 | 1006.7 |
| 20260831063004 | 13 | 264 | 4.8 | 19.3 | 0.00 | 0.08 | 0.08 | 93 | 1006.5 |
| 20260831062003 | 13 | 267 | 4.8 | 14.5 | 0.00 | 0.08 | 0.08 | 94 | 1006.4 |
| 20260831061004 | 13 | 266 | 4.8 | 12.9 | 0.00 | 0.08 | 0.08 | 94 | 1006.3 |
| 20260831060004 | 13 | 262 | 3.2 | 12.9 | 0.00 | 0.08 | 0.08 | 94 | 1006.1 |
| 20260831055004 | 13 | 265 | 3.2 | 11.3 | 0.00 | 0.08 | 0.08 | 93 | 1006.0 |
| 20260831054004 | 13 | 262 | 4.8 | 14.5 | 0.00 | 0.08 | 0.08 | 93 | 1005.7 |
| 20260831053005 | 13 | 260 | 4.8 | 22.5 | 0.00 | 0.08 | 0.08 | 93 | 1005.6 |
| 20260831052004 | 13 | 257 | 4.8 | 16.1 | 0.00 | 0.08 | 0.08 | 93 | 1005.5 |
| 20260831051003 | 13 | 264 | 8.0 | 17.7 | 0.00 | 0.08 | 0.08 | 93 | 1005.3 |
| 20260831050004 | 13 | 265 | 8.0 | 19.3 | 0.00 | 0.08 | 0.08 | 93 | 1005.2 |
| 20260831045004 | 13 | 258 | 6.4 | 17.7 | 0.00 | 0.08 | 0.08 | 93 | 1005.1 |
| 20260831044004 | 13 | 260 | 6.4 | 19.3 | 0.00 | 0.08 | 0.08 | 93 | 1005.0 |
| 20260831043003 | 13 | 262 | 4.8 | 14.5 | 0.00 | 0.08 | 0.08 | 93 | 1004.9 |
| 20260831042004 | 13 | 258 | 4.8 | 19.3 | 0.00 | 0.08 | 0.08 | 93 | 1004.8 |
| 20260831041003 | 13 | 261 | 4.8 | 14.5 | 0.00 | 0.08 | 0.08 | 93 | 1004.8 |
| 20260831040004 | 13 | 259 | 4.8 | 14.5 | 0.00 | 0.08 | 0.08 | 93 | 1004.8 |
| 20260831035003 | 13 | 257 | 3.2 | 14.5 | 0.00 | 0.08 | 0.08 | 93 | 1004.6 |
| 20260831034003 | 13 | 256 | 6.4 | 12.9 | 0.00 | 0.08 | 0.08 | 92 | 1004.6 |
| 20260831033003 | 13 | 266 | 6.4 | 16.1 | 0.00 | 0.08 | 0.08 | 93 | 1004.5 |
| 20260831025003 | 14 | 260 | 6.4 | 22.5 | 0.00 | 0.08 | 0.08 | 93 | 1004.2 |
| 20260831024004 | 14 | 260 | 8.0 | 20.9 | 0.05 | 0.08 | 0.08 | 93 | 1004.1 |
| 20260831023004 | 15 | 264 | 8.0 | 19.3 | 0.05 | 0.08 | 0.08 | 93 | 1003.9 |
| 20260831022004 | 15 | 258 | 6.4 | 19.3 | 0.05 | 0.08 | 0.08 | 93 | 1004.0 |
| 20260831021004 | 15 | 251 | 6.4 | 20.9 | 0.05 | 0.08 | 0.08 | 93 | 1003.7 |
| 20260831015004 | 15 | 249 | 3.2 | 12.9 | 0.05 | 0.08 | 0.08 | 93 | 1003.6 |
| 20260831013004 | 15 | 229 | 4.8 | 11.3 | 0.03 | 0.03 | 0.03 | 93 | 1003.7 |
| 20260831012003 | 15 | 211 | 3.2 | 16.1 | 0.03 | 0.03 | 0.03 | 92 | 1003.7 |
| 20260831011004 | 15 | 211 | 3.2 | 12.9 | 0.03 | 0.03 | 0.03 | 92 | 1003.6 |
| 20260831010004 | 15 | 193 | 1.6 | 8.0 | 0.03 | 0.03 | 0.03 | 92 | 1003.6 |
| 20260831005004 | 15 | 203 | 1.6 | 8.0 | 0.03 | 0.03 | 0.03 | 92 | 1003.8 |
| 20260831004004 | 15 | 204 | 3.2 | 14.5 | 0.00 | 0.00 | 0.00 | 92 | 1003.9 |
| 20260831002003 | 15 | 179 | 3.2 | 8.0 | 0.00 | 0.00 | 0.00 | 92 | 1004.1 |
| 20260831001003 | 15 | 194 | 1.6 | 11.3 | 0.00 | 0.00 | 0.00 | 92 | 1004.1 |
| 20260831000003 | 15 | 196 | 1.6 | 11.3 | 0.00 | 0.00 | 0.00 | 92 | 1004.2 |
| 20260830235004 | 15 | 212 | 1.6 | 9.7 | 0.00 | 0.00 | 0.00 | 92 | 1004.4 |
| 20260830234004 | 15 | 211 | 1.6 | 9.7 | 0.00 | 0.00 | 0.00 | 92 | 1004.5 |
| 20260830233005 | 15 | 200 | 1.6 | 8.0 | 0.00 | 0.00 | 0.00 | 92 | 1004.6 |
| 20260830232004 | 15 | 168 | 1.6 | 6.4 | 0.00 | 0.00 | 0.00 | 92 | 1004.7 |
| 20260830231004 | 15 | 207 | 1.6 | 14.5 | 0.00 | 0.00 | 0.00 | 92 | 1004.8 |
| 20260830230003 | 15 | 206 | 1.6 | 14.5 | 0.00 | 0.00 | 0.00 | 91 | 1004.8 |
| 20260830225004 | 15 | 225 | 3.2 | 14.5 | 0.00 | 0.00 | 0.00 | 91 | 1004.8 |
| 20260830224004 | 15 | 235 | 3.2 | 12.9 | 0.00 | 0.00 | 0.00 | 91 | 1005.1 |
| 20260830223005 | 15 | 225 | 3.2 | 14.5 | 0.00 | 0.00 | 0.00 | 90 | 1005.1 |
| 20260830221003 | 15 | 234 | 4.8 | 17.7 | 0.00 | 0.00 | 0.00 | 90 | 1005.2 |
| 20260830220004 | 16 | 231 | 4.8 | 30.6 | 0.00 | 0.00 | 0.00 | 89 | 1005.2 |
| 20260830214003 | 16 | 239 | 9.7 | 20.9 | 0.00 | 0.00 | 0.00 | 88 | 1005.4 |
| 20260830213003 | 16 | 243 | 8.0 | 25.7 | 0.00 | 0.00 | 0.00 | 87 | 1005.4 |
| 20260830212004 | 16 | 244 | 6.4 | 24.1 | 0.00 | 0.00 | 0.00 | 86 | 1005.2 |
| 20260830211004 | 17 | 220 | 4.8 | 19.3 | 0.00 | 0.00 | 0.00 | 87 | 1005.1 |
| 20260830210003 | 17 | 188 | 3.2 | 22.5 | 0.00 | 0.00 | 0.00 | 87 | 1005.0 |
| 20260830205005 | 17 | 199 | 3.2 | 16.1 | 0.00 | 0.00 | 0.00 | 85 | 1005.0 |
| 20260830204005 | 17 | 142 | 1.6 | 9.7 | 0.00 | 0.00 | 0.00 | 83 | 1004.6 |
| 20260830202005 | 18 | 208 | 4.8 | 16.1 | 0.00 | 0.00 | 0.00 | 82 | 1005.3 |
| 20260830201004 | 18 | 214 | 4.8 | 19.3 | 0.00 | 0.00 | 0.00 | 81 | 1005.4 |
| 20260830194003 | 18 | 186 | 3.2 | 19.3 | 0.00 | 0.00 | 0.00 | 80 | 1005.4 |
| 20260830193004 | 18 | 201 | 3.2 | 14.5 | 0.00 | 0.00 | 0.00 | 79 | 1005.5 |
| 20260830192004 | 18 | 212 | 3.2 | 16.1 | 0.00 | 0.00 | 0.00 | 79 | 1005.7 |
| 20260830191003 | 18 | 210 | 3.2 | 16.1 | 0.00 | 0.00 | 0.00 | 79 | 1005.8 |
| 20260830190004 | 18 | 223 | 4.8 | 17.7 | 0.00 | 0.00 | 0.00 | 78 | 1005.8 |
| 20260830185004 | 18 | 219 | 4.8 | 12.9 | 0.00 | 0.00 | 0.00 | 76 | 1005.9 |
| 20260830184005 | 18 | 218 | 6.4 | 16.1 | 0.00 | 0.00 | 0.00 | 75 | 1005.8 |
| 20260830183004 | 19 | 247 | 6.4 | 19.3 | 0.00 | 0.03 | 0.00 | 74 | 1005.9 |
| 20260830182004 | 19 | 242 | 4.8 | 22.5 | 0.00 | 0.03 | 0.00 | 74 | 1005.8 |
| 20260830180003 | 20 | 242 | 4.8 | 14.5 | 0.00 | 0.05 | 0.00 | 73 | 1005.9 |
| 20260830175004 | 20 | 228 | 4.8 | 16.1 | 0.00 | 0.08 | 0.00 | 73 | 1006.0 |
| 20260830174003 | 20 | 242 | 6.4 | 22.5 | 0.00 | 0.10 | 0.00 | 72 | 1006.0 |
| 20260830173003 | 20 | 244 | 8.0 | 32.2 | 0.00 | 0.13 | 0.00 | 71 | 1006.1 |
| 20260830172004 | 20 | 249 | 4.8 | 19.3 | 0.00 | 0.15 | 0.00 | 71 | 1006.2 |
| 20260830170003 | 20 | 239 | 6.4 | 22.5 | 0.00 | 0.18 | 0.00 | 71 | 1006.2 |
| 20260830165003 | 20 | 230 | 4.8 | 24.1 | 0.00 | 0.20 | 0.00 | 69 | 1006.2 |
| 20260830164004 | 21 | 239 | 8.0 | 25.7 | 0.00 | 0.23 | 0.00 | 69 | 1006.2 |
| 20260830163004 | 21 | 240 | 8.0 | 24.1 | 0.00 | 0.25 | 0.00 | 68 | 1006.4 |
| 20260830162005 | 21 | 236 | 8.0 | 25.7 | 0.00 | 0.28 | 0.00 | 68 | 1006.4 |
| 20260830161004 | 21 | 246 | 8.0 | 20.9 | 0.00 | 0.28 | 0.00 | 70 | 1006.5 |
| 20260830160004 | 21 | 246 | 6.4 | 17.7 | 0.00 | 0.30 | 0.00 | 70 | 1006.6 |
| 20260830155004 | 21 | 240 | 9.7 | 25.7 | 0.00 | 0.33 | 0.00 | 69 | 1006.7 |
| 20260830154004 | 20 | 242 | 9.7 | 20.9 | 0.00 | 0.36 | 0.00 | 69 | 1006.8 |
| 20260830153003 | 21 | 248 | 11.3 | 32.2 | 0.00 | 0.36 | 0.00 | 68 | 1007.0 |
| 20260830152004 | 21 | 241 | 8.0 | 33.8 | 0.00 | 0.38 | 0.00 | 67 | 1006.7 |
| 20260830151003 | 22 | 232 | 8.0 | 19.3 | 0.00 | 0.41 | 0.00 | 64 | 1006.6 |
| 20260830150005 | 22 | 242 | 8.0 | 29.0 | 0.00 | 0.41 | 0.00 | 63 | 1006.6 |
| 20260830145004 | 22 | 252 | 8.0 | 27.4 | 0.00 | 0.46 | 0.00 | 63 | 1006.7 |
| 20260830144003 | 22 | 252 | 9.7 | 27.4 | 0.00 | 0.46 | 0.00 | 64 | 1006.7 |
| 20260830143004 | 23 | 220 | 8.0 | 29.0 | 0.00 | 0.46 | 0.00 | 62 | 1006.7 |
| 20260830142004 | 23 | 229 | 6.4 | 22.5 | 0.00 | 0.51 | 0.00 | 63 | 1006.7 |